星链-3528 (STARLINK-3528 )

导读

STARLINK-3528是美国于2022年2月21日发射的星链卫星,属于SpaceX公司打造的星链星座组网卫星,该项目旨在构建全球卫星互联网星座,为全球用户提供高速互联网接入服务,这款卫星在轨运行,承担着扩展星链网络覆盖、提升通信服务容量的任务。

基本信息
目录编号:
51714
目录名称:
STARLINK-3528
国际标识:
2022-016A
轨道中心:
EARTH
卫星名称:
星链-3528
卫星全名:
星链-3528 (STARLINK-3528 )
卫星状态:
在轨 (已飞行1656 天)
发射日期:
2022-02-21 UTC
国别 :
美国 (US)
星等 :
--
轨道信息
数据来源 国际轨道数据 AOE轨道数据
星历时间 2026-09-03T17:11:56+0800
19小时前
查看轨道信息
2026-09-04T00:00:00+0800
12小时前
查看轨道信息
半长轴 6837.882km 6837.882km
偏心率 0.0001306 0.000127
轨道倾角 53.160° 53.157°
近地点辐角 76.455° 71.613°
升交点赤经 243.658° 242.332°
平近点角 283.660° 55.743°
近地点 458.851km 458.876km
远地点 460.639km 460.614km
周期 93.787分钟 93.787分钟
每日圈数 15.35396 15.353961
详细信息
固有亮度:
5
最大亮度:
2.5
卫星平台:
Starlink v1.5
覆盖范围:
全球
运营商:
太空探索技术公司
运营商所在国:
美国
制造商(研发单位):
太空探索技术公司
制造商所在国:
美国
使用方式:
暂无
卫星简介
星链(Starlink)计划是由太空探索技术公司(SpaceX)提出的一个巨型低轨卫星互联网星座项目,计划在2019年至2024年间在太空搭建由约1.2万颗卫星组成的“星链”网络,其中1584颗将部署在地球上空550千米处的近地轨道,并从2020年开始工作。该卫星仍在工作。
2D轨道图
3D轨道图
轨道高度分析图
轨道倾角分析图
轨道综合分析图
查看轨道综合分析图